COSMOS 2251 DEB, 33815

Orbit data source: Space-Track

COSMOS 2251 DEB, 33815 is space debris in LEO originally from a launch on Wed, 16 Jun 1993 UTC launched from the Plesetsk Missile And Space Complex (PKMTR). The debris from Iridium 33, an American commercial communications satellite, has been tracked extensively since its accidental collision with the defunct Russian satellite Cosmos 2251 in 2009. This event, occurring at high speed in low Earth orbit (LEO), generated thousands of pieces of space debris, significantly increasing the risk of further collisions. The Iridium 33 debris cloud has impacted space traffic management and orbital debris mitigation strategies, making it a subject of ongoing study in space situational awareness.

Loading next visibility...
Identifier
33815, 1993-036BG
Orbit
LEO
Country
Flag of CISCIS
Related business
Manufacturer
Unknown
Mission
Spacecraft
Bus & Motor
Unknown
Mass
Unknown
Launch date (UTC)
1993-06-16 (33 years ago)
Launch vehicle
Unknown
Launch site
Plesetsk Missile And Space Complex (PKMTR)
Object type
Payload
Rocket body
Debris
Shape & HBR
Unknown shape, 0.1 m
Radar Cross Section
Small (<0.1 m²)

Expand to show TLE details & history
Last TLE update: 14 hours ago

TLE from 14 hours ago
0 COSMOS 2251 DEB
1 33815U 93036BG  25353.90404641  .00092951  00000-0  42809-2 0  9998
2 33815  73.9514 161.5129 0001675 305.1272 203.9305 15.19832147884794
Epoch: 2025-12-19T21:41Z
TLE epoch observation values (Epoch: 2025-12-19T21:41:49.609Z)
Latitude
29.67927°
Longitude
-82.06571°
Altitude
510.858 km
Speed
7.611 km/s
True Right ascension
22h 08m 31s
True Declination
29° 31' 35"
Sunlit
Object was in daylight at epoch
Visualization orbit readout
Latitude
Unknown
Longitude
Unknown
Altitude
Unknown
Speed
Unknown
Apparent Right ascension
Unknown
Apparent Declination
Unknown
Sunlit
N/A
Visualization observer readout
Local Sidereal Time
10:08:37
Azimuth
Unknown
Elevation
Unknown
Doppler factor
Unknown
Orbital elements
Apogee altitude
505.04 km
Perigee altitude
502.734 km
Semi-major axis
6,882.024 km
Eccentricity
0.00017
Inclination
73.9514°
RAAN
161.5129°
Arg. of periapsis
305.1272°
True anomaly
203.92272°
Mean anomaly
203.9305°
Eccentric anomaly
203.92661°
Mean motion
3.80162 °/min
Orbital period
94.7 mins
BSTAR
0.0042809
Loading maneuver chart data...
Computing Atmospheric mass density...

Documentation

Showing up to 5 results
|